• In Portugal
  • List of Countries
  • For 7 days
  • Water Temperature
  • Satellite Maps
  • Weather Map
  • Weather Widgets
  • user-avatar
    Login

    Hourly Weather Tirana

    Today, 23 February, Friday

    Time Temperature Precipitation Wind Pressure Humidity
    00:00 +8°C° 0 mm 4 mps 748 mmHg 79%
    01:00 +8°C° 0 mm 4 mps 748 mmHg 79%
    02:00 +8°C° 0 mm 4 mps 748 mmHg 79%
    03:00 +8°C° 0 mm 4 mps 748 mmHg 80%
    04:00 +8°C° 0 mm 4 mps 747 mmHg 80%
    05:00 +7°C° 0 mm 4 mps 747 mmHg 79%
    06:00 +7°C° 0 mm 4 mps 747 mmHg 79%
    07:00 +8°C° 0 mm 4 mps 747 mmHg 79%
    08:00 +10°C° 0 mm 4 mps 748 mmHg 75%
    09:00 +11°C° 0 mm 4 mps 748 mmHg 71%
    10:00 +13°C° 0 mm 4 mps 748 mmHg 68%
    11:00 +13°C° 0 mm 4 mps 748 mmHg 65%
    12:00 +14°C° 0 mm 4 mps 748 mmHg 63%
    13:00 +16°C° 0 mm 3 mps 747 mmHg 59%
    14:00 +16°C° 0 mm 3 mps 747 mmHg 62%
    15:00 +14°C° 0 mm 4 mps 747 mmHg 64%
    16:00 +14°C° 0 mm 4 mps 747 mmHg 67%
    17:00 +12°C° 0 mm 4 mps 747 mmHg 70%
    18:00 +10°C° 0 mm 5 mps 747 mmHg 73%
    19:00 +9°C° 0 mm 5 mps 747 mmHg 76%
    20:00 +9°C° 0 mm 6 mps 747 mmHg 76%
    21:00 +8°C° 0 mm 6 mps 746 mmHg 76%
    22:00 +8°C° 0 mm 6 mps 746 mmHg 76%
    23:00 +8°C° 0 mm 6 mps 746 mmHg 76%

    Tomorrow, 24 February, Saturday

    Time Temperature Precipitation Wind Pressure Humidity
    00:00 +8°C° 0 mm 6 mps 746 mmHg 76%
    01:00 +8°C° 0 mm 6 mps 745 mmHg 76%
    02:00 +8°C° 0 mm 6 mps 745 mmHg 75%
    03:00 +8°C° 0 mm 6 mps 745 mmHg 75%
    04:00 +7°C° 0 mm 6 mps 745 mmHg 75%
    05:00 +7°C° 0.2 mm 5 mps 745 mmHg 76%
    06:00 +7°C° 0.2 mm 4 mps 745 mmHg 77%
    07:00 +8°C° 0.2 mm 3 mps 745 mmHg 78%
    08:00 +9°C° 0.2 mm 3 mps 746 mmHg 77%
    09:00 +10°C° 0.2 mm 2 mps 746 mmHg 76%
    10:00 +10°C° 0.2 mm 2 mps 746 mmHg 75%
    11:00 +12°C° 0.1 mm 2 mps 746 mmHg 73%
    12:00 +13°C° 0.1 mm 2 mps 746 mmHg 71%
    13:00 +12°C° 0.1 mm 3 mps 746 mmHg 69%
    14:00 +13°C° 0.1 mm 2 mps 746 mmHg 70%
    15:00 +13°C° 0.1 mm 2 mps 746 mmHg 70%
    16:00 +13°C° 0.1 mm 2 mps 746 mmHg 71%
    17:00 +12°C° 0 mm 2 mps 746 mmHg 74%
    18:00 +10°C° 0 mm 2 mps 746 mmHg 77%
    19:00 +9°C° 0 mm 2 mps 747 mmHg 79%
    20:00 +9°C° 0 mm 2 mps 747 mmHg 79%
    21:00 +9°C° 0 mm 3 mps 747 mmHg 79%
    22:00 +8°C° 0 mm 3 mps 747 mmHg 79%
    23:00 +8°C° 0 mm 3 mps 748 mmHg 79%

    Day after tomorrow, 25 February, Sunday

    Time Temperature Precipitation Wind Pressure Humidity
    00:00 +8°C° 0 mm 3 mps 748 mmHg 79%
    01:00 +7°C° 0 mm 3 mps 748 mmHg 79%
    02:00 +7°C° 0 mm 3 mps 748 mmHg 79%
    03:00 +7°C° 0 mm 3 mps 748 mmHg 79%
    04:00 +6°C° 0 mm 4 mps 748 mmHg 78%
    05:00 +6°C° 0.2 mm 4 mps 748 mmHg 78%
    06:00 +5°C° 0.2 mm 4 mps 748 mmHg 78%
    07:00 +5°C° 0.2 mm 4 mps 748 mmHg 77%
    08:00 +6°C° 0.3 mm 4 mps 748 mmHg 75%
    09:00 +7°C° 0.3 mm 4 mps 748 mmHg 72%
    10:00 +8°C° 0.3 mm 5 mps 748 mmHg 69%
    11:00 +9°C° 0.4 mm 5 mps 748 mmHg 69%
    12:00 +9°C° 0.4 mm 5 mps 748 mmHg 68%
    13:00 +10°C° 0.4 mm 6 mps 747 mmHg 67%
    14:00 +9°C° 1.2 mm 6 mps 747 mmHg 73%
    15:00 +8°C° 1.2 mm 6 mps 747 mmHg 79%
    16:00 +7°C° 1.2 mm 6 mps 747 mmHg 85%
    17:00 +6°C° 1.6 mm 5 mps 747 mmHg 86%
    18:00 +6°C° 1.6 mm 5 mps 747 mmHg 87%
    19:00 +5°C° 1.6 mm 4 mps 747 mmHg 88%
    20:00 +5°C° 2.1 mm 5 mps 746 mmHg 87%
    21:00 +5°C° 2.1 mm 5 mps 746 mmHg 87%
    22:00 +3°C° 2.1 mm 6 mps 746 mmHg 86%
    23:00 +3°C° 2.3 mm 6 mps 745 mmHg 86%

    26 February, Monday

    Time Temperature Precipitation Wind Pressure Humidity
    00:00 +3°C° 2.3 mm 6 mps 745 mmHg 86%
    01:00 +3°C° 2.3 mm 7 mps 744 mmHg 85%
    02:00 +2°C° 2.7 mm 7 mps 744 mmHg 85%
    03:00 +2°C° 2.7 mm 7 mps 743 mmHg 85%
    04:00 +1°C° 2.7 mm 8 mps 742 mmHg 85%
    05:00 +1°C° 2.6 mm 8 mps 742 mmHg 85%
    06:00 +1°C° 2.6 mm 9 mps 742 mmHg 84%
    07:00 +1°C° 2.6 mm 9 mps 741 mmHg 84%
    08:00 +2°C° 1.9 mm 8 mps 742 mmHg 83%
    09:00 +3°C° 1.9 mm 7 mps 742 mmHg 82%
    10:00 +4°C° 1.9 mm 6 mps 742 mmHg 81%
    11:00 +4°C° 0.6 mm 6 mps 742 mmHg 82%
    12:00 +5°C° 0.6 mm 5 mps 742 mmHg 84%
    13:00 +6°C° 0.6 mm 5 mps 743 mmHg 85%
    14:00 +6°C° 0.2 mm 4 mps 743 mmHg 86%
    15:00 +6°C° 0.2 mm 4 mps 743 mmHg 86%
    16:00 +6°C° 0.2 mm 4 mps 743 mmHg 87%
    17:00 +5°C° 0 mm 3 mps 744 mmHg 87%
    18:00 +6°C° 0 mm 2 mps 744 mmHg 87%
    19:00 +6°C° 0 mm 2 mps 744 mmHg 87%
    20:00 +5°C° 0 mm 2 mps 745 mmHg 87%
    21:00 +6°C° 0 mm 1 mps 745 mmHg 87%
    22:00 +6°C° 0 mm 1 mps 745 mmHg 87%
    23:00 +5°C° 0.1 mm 2 mps 745 mmHg 88%

    27 February, Tuesday

    Time Temperature Precipitation Wind Pressure Humidity
    00:00 +5°C° 0.1 mm 2 mps 745 mmHg 89%
    01:00 +5°C° 0.1 mm 2 mps 745 mmHg 90%
    02:00 +4°C° 0.3 mm 3 mps 745 mmHg 90%
    03:00 +4°C° 0.3 mm 4 mps 745 mmHg 90%
    04:00 +4°C° 0.3 mm 4 mps 745 mmHg 90%
    05:00 +4°C° 0.5 mm 4 mps 745 mmHg 90%
    06:00 +4°C° 0.5 mm 4 mps 745 mmHg 91%
    07:00 +4°C° 0.5 mm 4 mps 745 mmHg 91%
    08:00 +5°C° 0.2 mm 4 mps 746 mmHg 89%
    09:00 +7°C° 0.2 mm 3 mps 746 mmHg 86%
    10:00 +8°C° 0.2 mm 3 mps 746 mmHg 83%
    11:00 +8°C° 0.3 mm 3 mps 746 mmHg 82%
    12:00 +8°C° 0.3 mm 3 mps 746 mmHg 81%
    13:00 +9°C° 0.3 mm 3 mps 746 mmHg 79%
    14:00 +8°C° 0.3 mm 2 mps 746 mmHg 80%
    15:00 +8°C° 0.3 mm 2 mps 746 mmHg 81%
    16:00 +8°C° 0.3 mm 2 mps 746 mmHg 82%
    17:00 +8°C° 0.6 mm 2 mps 746 mmHg 85%
    18:00 +7°C° 0.6 mm 3 mps 746 mmHg 87%
    19:00 +7°C° 0.6 mm 3 mps 746 mmHg 89%
    20:00 +7°C° 0.9 mm 3 mps 747 mmHg 90%
    21:00 +7°C° 0.9 mm 3 mps 747 mmHg 90%
    22:00 +7°C° 0.9 mm 3 mps 747 mmHg 91%
    23:00 +6°C° 0.7 mm 4 mps 747 mmHg 92%

    28 February, Wednesday

    Time Temperature Precipitation Wind Pressure Humidity
    00:00 +6°C° 0.7 mm 4 mps 747 mmHg 93%
    01:00 +6°C° 0.7 mm 4 mps 748 mmHg 94%
    02:00 +6°C° 0.2 mm 4 mps 748 mmHg 94%
    03:00 +6°C° 0.2 mm 4 mps 748 mmHg 93%
    04:00 +5°C° 0.2 mm 3 mps 748 mmHg 92%
    05:00 +5°C° 0 mm 3 mps 748 mmHg 90%
    06:00 +5°C° 0 mm 3 mps 748 mmHg 88%
    07:00 +5°C° 0 mm 3 mps 749 mmHg 86%
    08:00 +7°C° 0 mm 2 mps 749 mmHg 83%
    09:00 +8°C° 0 mm 2 mps 749 mmHg 81%
    10:00 +11°C° 0 mm 1 mps 749 mmHg 78%
    11:00 +10°C° 0 mm 2 mps 749 mmHg 76%
    12:00 +12°C° 0 mm 2 mps 749 mmHg 74%
    13:00 +12°C° 0 mm 2 mps 749 mmHg 73%
    14:00 +12°C° 0 mm 2 mps 749 mmHg 75%
    15:00 +10°C° 0 mm 3 mps 749 mmHg 77%
    16:00 +10°C° 0 mm 3 mps 750 mmHg 78%
    17:00 +9°C° 0 mm 3 mps 750 mmHg 81%
    18:00 +8°C° 0 mm 2 mps 751 mmHg 83%
    19:00 +7°C° 0 mm 2 mps 752 mmHg 86%
    20:00 +7°C° 0 mm 2 mps 752 mmHg 85%
    21:00 +8°C° 0 mm 2 mps 753 mmHg 84%
    22:00 +8°C° 0 mm 2 mps 753 mmHg 83%
    23:00 +8°C° 0 mm 2 mps 753 mmHg 82%
    Show more